Regional Weather Roundup
Issued by NWS

Home | Current Version | Previous Version | Text Only | Print | Product List | Glossary On
Versions: 1 2 3 4 5 6 7 8 9 10 11 12 13 14 15 16 17 18 19 20 21 22 23 24 25 26 27 28 29 30 31 32 33 34 35 36 37 38 39 40 41 42 43 44 45 46 47 48 49 50
000
ASUS43 KMKX 190711
RWRWI

WISCONSIN REGIONAL WEATHER ROUNDUP
NATIONAL WEATHER SERVICE MILWAUKEE/SULLIVAN WI
200 AM CDT SAT AUG 19 2017

NOTE: "FAIR" INDICATES FEW OR NO CLOUDS BELOW 12,000 FEET WITH NO
SIGNIFICANT WEATHER AND/OR OBSTRUCTIONS TO VISIBILITY.

WIZ001-002-006>008-014>016-023>028-190800-
NORTHWEST WISCONSIN

CITY           SKY/WX    TMP DP  RH WIND       PRES   REMARKS
SUPERIOR ARPT    N/A     58  57  97 SW7       29.86F
ASHLAND        PTCLDY    61  58  90 SW7       29.86S
HAYWARD        CLOUDY    60  59  96 S3        29.90S FOG
SIREN          CLEAR     59  58  98 SW5       29.91S FOG
CUMBERLAND     CLEAR     55  55 100 W5        29.92S FOG
RICE LAKE      FOG       56  55  98 CALM      29.93R VSB<1/4
CHETEK         FOG       59  59 100 CALM      29.91F VSB 3/4
LADYSMITH      CLOUDY    63  62  97 W3        29.92F FOG
EAU CLAIRE     CLEAR     60  59  96 S3        29.91F FOG
MENOMONIE      CLEAR     59  59  99 SW3       29.92F
NEW RICHMOND   FOG       58  57  99 SW3       29.93S VSB 3/4
OSCEOLA        PTCLDY    56  56 100 CALM      29.95S FOG
$$

WIZ003>005-009-010-017-018-190800-
NORTH CENTRAL WISCONSIN

CITY           SKY/WX    TMP DP  RH WIND       PRES   REMARKS
MANITOWISH WTR CLOUDY    59  59 100 CALM      29.88F FOG
ARBOR VITAE    CLOUDY    62  61  96 W3        29.89F
WOODRUFF       CLOUDY    62  61  96 W3        29.89F
RHINELANDER    MOCLDY    56  56 100 W6        29.90F FOG
EAGLE RIVER      N/A     54  54 100 CALM      29.89S FOG
LAND O LAKES   CLOUDY    52  52 100 CALM      29.90S FOG
PHILLIPS       CLEAR     59  59 100 CALM      29.90F
TOMAHAWK       FOG       55  54  97 CALM      29.91S VSB 3/4
MEDFORD        FOG       61  61  99 W6        29.91F VSB 3/4
MERRILL        FOG       61  61 100 NW5       29.91S VSB 1
$$

WIZ029-030-035-036-043>047-190800-
CENTRAL WISCONSIN

CITY           SKY/WX    TMP DP  RH WIND       PRES   REMARKS
WAUSAU         CLOUDY    63  62  97 NW9       29.89S FOG
MOSINEE        CLOUDY    59  59 100 W6        29.92S FOG
MARSHFIELD     CLEAR     61  59  93 W7        29.91S FOG
STEVENS POINT  CLOUDY    60  60 100 CALM      29.91S
WAUPACA        CLOUDY    65  64  97 CALM      29.90S FOG
WAUTOMA        CLOUDY    63  62  97 W5        29.91
WISC RAPIDS    CLOUDY    63  62  97 W6        29.92S
CAMP DOUGLAS   CLEAR     57  57 100 W5        29.92S FOG
$$

WIZ011>013-019>022-031-037>040-048>050-190800-
NORTHEAST WISCONSIN

CITY           SKY/WX    TMP DP  RH WIND       PRES   REMARKS
ANTIGO         CLOUDY    54  54 100 W3        29.91S FOG
SHAWANO        CLOUDY    64  60  88 CALM      29.88F
OCONTO         CLOUDY    56  55  97 CALM      29.86F
STURGEON BAY   CLOUDY    60  57  89 SW5       29.87F
GREEN BAY      CLOUDY    62  62 100 W3        29.88F
MANITOWOC      PTCLDY    63  60  90 CALM      29.88F
APPLETON       CLOUDY    61  61 100 W6        29.87F
CLINTONVILLE   CLOUDY    61  59  94 SW3       29.88F
OSHKOSH        CLOUDY    64  62  93 W3        29.89F
$$

WIZ032>034-041-042-053>061-190800-
SOUTHWEST WISCONSIN

CITY           SKY/WX    TMP DP  RH WIND       PRES   REMARKS
LA CROSSE      FOG       62  61  96 SE6       29.92S VSB 1
SPARTA         FOG       53  53 100 CALM      29.93F VSB 1/4
VIROQUA        PTCLDY    59  59 100 W5        29.94S
BOSCOBEL       CLOUDY    59  58  96 CALM      29.92F FOG
PRAIRIE DU CHI FOG       59  58  96 CALM      29.92F VSB 1/4
PLATTEVILLE      N/A     56  56 100 N3        29.94F VSB 1/2
$$

WIZ056-057-062-063-064-067-068-190800-
SOUTH CENTRAL WISCONSIN

CITY           SKY/WX    TMP DP  RH WIND       PRES   REMARKS
REEDSBURG      CLEAR     58  58 100 CALM      29.92F
BARABOO/DELLS  CLEAR     59  57  94 S3        29.92F FOG
LONE ROCK      FOG       59  59 100 N3        29.92F VSB 1/4
MINERAL POINT  PTCLDY    59  59 100 CALM      29.94F FOG
MADISON        CLEAR     61  59  93 CALM      29.91F FOG
MIDDLETON      CLEAR     61  61 100 CALM      29.93S
WATERTOWN      MOCLDY    63  63 100 CALM      29.91S
MONROE         CLEAR     61  59  94 NW6       29.93S
JANESVILLE     CLEAR     61  61 100 CALM      29.92F
$$

WIZ051-052-058>065-066-070>072-190800-
SOUTHEAST WISCONSIN

CITY           SKY/WX    TMP DP  RH WIND       PRES   REMARKS
MILWAUKEE      PTCLDY    68  62  81 NW10      29.90S
WAUKESHA       MOCLDY    61  59  94 W6        29.92F
MILWAUKEE/TIMM PTCLDY    63  55  77 W5        29.91S
RACINE         CLEAR     63  60  90 W6        29.91S
KENOSHA        CLEAR     63  59  87 NW6       29.90F
FOND DU LAC    CLOUDY    65  61  87 W5        29.90F
SHEBOYGAN      CLOUDY    63  62  97 CALM      29.89F
WEST BEND      CLOUDY    63  61  94 CALM      29.90F
JUNEAU         CLOUDY    64  62  91 CALM      29.91F
$$

LSZ147-162-190800-
LAKE SUPERIOR

STATION/POSITION TIME  TEMP    WIND        PRES    WAVE
                       AIR SEA DIR/SP/G            HT/PER
                 (UTC) (F)     (DEG/KT/KT) (MB)    (FT/S)
W MID LAKE BUOY  0650   62 60  250/ 14/ 14 1009.2R   1/ 4
DEVILS ISLAND    0700   63     240/ 16/ 20 1009.8F
SAXON HARBOR     0640   66     200/  8/ 11 1010.2F
$$

LMZ867-665-643>646-190800-
LAKE MICHIGAN

STATION/POSITION TIME  TEMP    WIND        PRES    WAVE
                       AIR SEA DIR/SP/G            HT/PER
                 (UTC) (F)     (DEG/KT/KT) (MB)    (FT/S)
S GREEN BAY BUOY 0700   68 70  240/ 10/ 10 1011.2
N MID LAKE BUOY  0650   66 66  300/ 14/ 16 1011.0R
NORTHPORT PIER   0640   66     290/  5/  9 1011.2R
KEWAUNEE LAKESHO 0648          300/  2/  3 1010.8F
SHEBOYGAN LAKESH 0700   66     280/  3/  3 1011.6F
PORT WASHINGTON  0640   67     310/  5/  6 1013.2S
ATWATER BUOY     0609   68 71  290/ 12/ 14 1012.4S
MILWAUKEE LAKESH 0650   67     290/  6/  7   N/A
S MID LAKE BUOY  0650   70 71  360/ 14/ 16 1011.4R   1/ 3
KENOSHA   LAKESH 0700   66     300/  8/ 12 1012.2
$$

TC  - TEMPERATURE IN CELSIUS
VSB - VISIBILITY IN STATUTE MILES
WCI - WIND CHILL INDEX
HX  - HEAT INDEX




USA.gov is the U.S. government's official web portal to all federal, state and local government web resources and services.